UAE1 OMDB-EGLL

Flight info

Callsign UAE1
Flight time 7h 31m
Altitude 35000
Route ANVIX L223 TARDI N629 BOTAM Y855 LAKLU/N0486F340 Q204 NALKI G652 TOKRA DCT ALROK/N0493F360 DCT BOSOB DCT ITRUX Y511 PMA Z712 WEJ L677 GESON Q777 RASDA/N0478F380 DCT OTHON DCT VAXOS DCT RDS UL609 MES DCT FSK DCT DISOR DCT LONTA UL608 DOLEV DCT SABAD DCT KUBUD DCT SOTOV DCT XEBIX DCT USUDO DCT LIRSU DCT DENUT L608 COA/N0358F180 L179 SASKI L608 LOGAN
Aircraft A388/J-SADE2E3FGHIJ3J4J5M1RWXY/LB1D1

Departure

Time 2026-04-23 03:02
Airport Dubai International Airport (OMDB)

Arrival

Time 2026-04-23 10:33
Airport London Heathrow Airport (EGLL)
Time Latitude Longitude Altitude Speed Heading
2026-04-23 02:32 25.24847 55.36375 28 ft 0 kts 212°
2026-04-23 02:44 25.24858 55.36382 26 ft 4 kts 212°
2026-04-23 02:44 25.24881 55.36398 24 ft 4 kts 211°
2026-04-23 02:44 25.24901 55.36412 25 ft 4 kts 204°
2026-04-23 02:44 25.24923 55.36412 25 ft 4 kts 143°
2026-04-23 02:45 25.24942 55.36391 25 ft 4 kts 124°
2026-04-23 02:45 25.24949 55.36378 24 ft 1 kts 122°
2026-04-23 02:45 25.24950 55.36377 24 ft 0 kts 122°
2026-04-23 02:50 25.24941 55.36392 25 ft 5 kts 122°
2026-04-23 02:50 25.24910 55.36447 26 ft 12 kts 122°
2026-04-23 02:50 25.24859 55.36540 27 ft 17 kts 122°
2026-04-23 02:50 25.24803 55.36665 27 ft 19 kts 105°
2026-04-23 02:51 25.24766 55.36810 27 ft 19 kts 113°
2026-04-23 02:51 25.24752 55.36939 27 ft 17 kts 66°
2026-04-23 02:51 25.24741 55.37055 27 ft 16 kts 120°
2026-04-23 02:51 25.24682 55.37159 27 ft 17 kts 122°
2026-04-23 02:52 25.24616 55.37270 27 ft 18 kts 123°
2026-04-23 02:52 25.24548 55.37388 27 ft 18 kts 120°
2026-04-23 02:52 25.24482 55.37512 27 ft 19 kts 121°
2026-04-23 02:52 25.24413 55.37638 27 ft 20 kts 121°
2026-04-23 02:53 25.24341 55.37768 27 ft 20 kts 121°
2026-04-23 02:53 25.24268 55.37900 27 ft 20 kts 121°
2026-04-23 02:53 25.24193 55.38033 27 ft 21 kts 121°
2026-04-23 02:53 25.24119 55.38167 27 ft 21 kts 123°
2026-04-23 02:54 25.24038 55.38298 27 ft 21 kts 122°
2026-04-23 02:54 25.23961 55.38433 27 ft 21 kts 122°
2026-04-23 02:54 25.23886 55.38570 27 ft 21 kts 122°
2026-04-23 02:54 25.23810 55.38706 27 ft 21 kts 121°
2026-04-23 02:55 25.23734 55.38843 27 ft 21 kts 121°
2026-04-23 02:55 25.23658 55.38981 27 ft 21 kts 122°
2026-04-23 02:55 25.23606 55.39072 27 ft 21 kts 122°
2026-04-23 02:55 25.23528 55.39209 27 ft 21 kts 122°
2026-04-23 02:56 25.23451 55.39348 27 ft 21 kts 121°
2026-04-23 02:56 25.23396 55.39457 27 ft 13 kts 101°
2026-04-23 02:56 25.23406 55.39501 27 ft 0 kts 45°
2026-04-23 02:59 25.23415 55.39512 27 ft 4 kts 45°
2026-04-23 03:00 25.23448 55.39544 52 ft 8 kts 39°
2026-04-23 03:00 25.23502 55.39579 27 ft 9 kts
2026-04-23 03:00 25.23551 55.39547 27 ft 9 kts 301°
2026-04-23 03:00 25.23598 55.39464 27 ft 21 kts 302°
2026-04-23 03:01 25.23790 55.39128 27 ft 90 kts 301°
2026-04-23 03:01 25.24228 55.38335 27 ft 148 kts 301°
2026-04-23 03:01 25.24827 55.37276 161 ft 167 kts 302°
2026-04-23 03:01 25.25448 55.36190 554 ft 172 kts 303°
2026-04-23 03:02 25.26143 55.35057 808 ft 182 kts 305°
2026-04-23 03:02 25.26867 55.33904 1223 ft 183 kts 304°
2026-04-23 03:02 25.27593 55.32729 1565 ft 189 kts 304°
2026-04-23 03:02 25.28341 55.31498 1792 ft 199 kts 303°
2026-04-23 03:03 25.29077 55.30213 2178 ft 199 kts 293°
2026-04-23 03:03 25.29254 55.28720 2534 ft 196 kts 255°
2026-04-23 03:03 25.28705 55.27356 2876 ft 197 kts 240°
2026-04-23 03:03 25.28064 55.25974 3066 ft 207 kts 243°
2026-04-23 03:04 25.27295 55.24580 3137 ft 221 kts 223°
2026-04-23 03:04 25.26026 55.23490 3328 ft 240 kts 212°
2026-04-23 03:04 25.24618 55.22363 3565 ft 261 kts 225°
2026-04-23 03:04 25.23628 55.20614 3974 ft 274 kts 246°
2026-04-23 03:05 25.22987 55.18634 4673 ft 273 kts 250°
2026-04-23 03:05 25.22412 55.16641 5390 ft 273 kts 251°
2026-04-23 03:05 25.21832 55.14674 6085 ft 272 kts 250°
2026-04-23 03:05 25.21223 55.12697 6768 ft 272 kts 249°
2026-04-23 03:06 25.20595 55.10722 7437 ft 272 kts 249°
2026-04-23 03:06 25.19959 55.08755 8117 ft 271 kts 249°
2026-04-23 03:06 25.19319 55.06791 8802 ft 272 kts 249°
2026-04-23 03:06 25.18676 55.04821 9490 ft 273 kts 249°
2026-04-23 03:07 25.18031 55.02846 10120 ft 276 kts 249°
2026-04-23 03:07 25.17357 55.00788 10297 ft 295 kts 249°
2026-04-23 03:07 25.16636 54.98586 10434 ft 313 kts 249°
2026-04-23 03:07 25.15889 54.96302 10631 ft 327 kts 249°
2026-04-23 03:08 25.15109 54.93914 11135 ft 332 kts 249°
2026-04-23 03:08 25.14323 54.91508 11706 ft 335 kts 249°
2026-04-23 03:08 25.13530 54.89081 12264 ft 338 kts 249°
2026-04-23 03:08 25.12727 54.86628 12822 ft 341 kts 249°
2026-04-23 03:09 25.11915 54.84148 13391 ft 345 kts 249°
2026-04-23 03:09 25.11097 54.81652 13926 ft 348 kts 249°
2026-04-23 03:09 25.10270 54.79132 14463 ft 350 kts 249°
2026-04-23 03:09 25.09436 54.76595 15006 ft 352 kts 249°
2026-04-23 03:10 25.08598 54.74046 15497 ft 356 kts 249°
2026-04-23 03:10 25.07748 54.71464 15973 ft 359 kts 249°
2026-04-23 03:10 25.06892 54.68865 16505 ft 361 kts 250°
2026-04-23 03:10 25.06042 54.66283 17031 ft 363 kts 250°
2026-04-23 03:11 25.05177 54.63660 17544 ft 365 kts 250°
2026-04-23 03:11 25.04307 54.61022 18049 ft 367 kts 250°
2026-04-23 03:11 25.03427 54.58355 18486 ft 370 kts 250°
2026-04-23 03:11 25.02545 54.55685 18920 ft 371 kts 250°
2026-04-23 03:12 25.01658 54.53001 19341 ft 373 kts 250°
2026-04-23 03:12 25.00766 54.50304 19767 ft 375 kts 250°
2026-04-23 03:12 24.99870 54.47597 20200 ft 376 kts 250°
2026-04-23 03:12 24.98972 54.44886 20617 ft 378 kts 250°
2026-04-23 03:13 24.98067 54.42159 21019 ft 380 kts 250°
2026-04-23 03:13 24.97168 54.39449 21412 ft 382 kts 250°
2026-04-23 03:13 24.96252 54.36688 21814 ft 384 kts 249°
2026-04-23 03:13 24.95331 54.33916 22201 ft 386 kts 249°
2026-04-23 03:14 24.94404 54.31129 22601 ft 388 kts 249°
2026-04-23 03:14 24.93474 54.28334 22989 ft 390 kts 249°
2026-04-23 03:14 24.92538 54.25522 23370 ft 392 kts 249°
2026-04-23 03:14 24.91595 54.22689 23722 ft 394 kts 249°
2026-04-23 03:15 24.90648 54.19851 24060 ft 395 kts 249°
2026-04-23 03:15 24.89698 54.17003 24381 ft 397 kts 250°
2026-04-23 03:15 24.88744 54.14147 24698 ft 399 kts 250°
2026-04-23 03:15 24.87783 54.11269 25026 ft 401 kts 250°
2026-04-23 03:16 24.86815 54.08376 25361 ft 403 kts 250°
2026-04-23 03:16 24.85843 54.05470 25717 ft 405 kts 250°
2026-04-23 03:16 24.83885 53.99625 26455 ft 409 kts 250°
2026-04-23 03:17 24.82895 53.96673 26857 ft 411 kts 251°
2026-04-23 03:17 24.81914 53.93751 27261 ft 413 kts 251°
2026-04-23 03:17 24.80918 53.90783 27652 ft 415 kts 251°
2026-04-23 03:17 24.79911 53.87787 28066 ft 418 kts 251°
2026-04-23 03:18 24.78901 53.84782 28463 ft 420 kts 251°
2026-04-23 03:18 24.77883 53.81759 28900 ft 422 kts 251°
2026-04-23 03:18 24.76858 53.78715 29309 ft 424 kts 252°
2026-04-23 03:18 24.75830 53.75666 29718 ft 427 kts 252°
2026-04-23 03:19 24.74793 53.72593 30112 ft 429 kts 252°
2026-04-23 03:19 24.73752 53.69508 30566 ft 429 kts 252°
2026-04-23 03:19 24.72710 53.66427 30954 ft 430 kts 252°
2026-04-23 03:19 24.71665 53.63337 31334 ft 432 kts 252°
2026-04-23 03:20 24.70630 53.60275 31715 ft 433 kts 252°
2026-04-23 03:20 24.69578 53.57169 32106 ft 434 kts 252°
2026-04-23 03:20 24.68521 53.54051 32473 ft 436 kts 252°
2026-04-23 03:20 24.67460 53.50921 32848 ft 437 kts 252°
2026-04-23 03:21 24.66393 53.47778 33217 ft 439 kts 252°
2026-04-23 03:21 24.65321 53.44624 33583 ft 440 kts 253°
2026-04-23 03:21 24.64248 53.41468 33940 ft 442 kts 253°
2026-04-23 03:21 24.63170 53.38300 34262 ft 443 kts 253°
2026-04-23 03:22 24.62090 53.35128 34655 ft 443 kts 253°
2026-04-23 03:22 24.61022 53.31993 34848 ft 447 kts 253°
2026-04-23 03:22 24.58843 53.25613 34846 ft 441 kts 253°
2026-04-23 03:23 24.56696 53.19327 34848 ft 443 kts 253°
2026-04-23 03:23 24.54525 53.12985 34849 ft 443 kts 253°
2026-04-23 03:24 24.52349 53.06637 34848 ft 443 kts 253°
2026-04-23 03:24 24.50169 53.00288 34843 ft 443 kts 253°
2026-04-23 03:25 24.47992 52.93960 34853 ft 443 kts 253°
2026-04-23 03:25 24.45823 52.87660 34853 ft 443 kts 253°
2026-04-23 03:26 24.43693 52.81488 34853 ft 443 kts 253°
2026-04-23 03:26 24.41476 52.75070 34858 ft 443 kts 253°
2026-04-23 03:27 24.39301 52.68785 34862 ft 443 kts 253°
2026-04-23 03:27 24.37107 52.62455 34863 ft 443 kts 253°
2026-04-23 03:28 24.35998 52.55969 34858 ft 435 kts 273°
2026-04-23 03:28 24.36925 52.49430 34865 ft 433 kts 280°
2026-04-23 03:29 24.37998 52.42925 34868 ft 433 kts 280°
2026-04-23 03:29 24.39087 52.36418 34869 ft 433 kts 280°
2026-04-23 03:30 24.40181 52.29921 34893 ft 433 kts 280°
2026-04-23 03:30 24.41272 52.23429 34891 ft 432 kts 280°
2026-04-23 03:31 24.42357 52.16954 34880 ft 431 kts 280°
2026-04-23 03:31 24.43436 52.10490 34871 ft 430 kts 280°
2026-04-23 03:32 24.44505 52.04076 34865 ft 429 kts 280°
2026-04-23 03:32 24.45575 51.97635 34864 ft 429 kts 280°
2026-04-23 03:33 24.46641 51.91204 34860 ft 429 kts 280°
2026-04-23 03:33 24.47706 51.84756 34853 ft 429 kts 280°
2026-04-23 03:34 24.48769 51.78311 34843 ft 429 kts 280°
2026-04-23 03:34 24.49828 51.71864 34857 ft 429 kts 280°
2026-04-23 03:35 24.50886 51.65402 34851 ft 429 kts 279°
2026-04-23 03:35 24.51937 51.58951 34845 ft 429 kts 279°
2026-04-23 03:36 24.52980 51.52539 34849 ft 429 kts 279°
2026-04-23 03:36 24.54026 51.46087 34849 ft 428 kts 279°
2026-04-23 03:37 24.55068 51.39638 34845 ft 428 kts 279°
2026-04-23 03:37 24.56107 51.33195 34847 ft 428 kts 279°
2026-04-23 03:38 24.57143 51.26753 34842 ft 428 kts 279°
2026-04-23 03:38 24.58174 51.20317 34846 ft 428 kts 279°
2026-04-23 03:39 24.59199 51.13905 34847 ft 428 kts 279°
2026-04-23 03:39 24.60227 51.07452 34845 ft 428 kts 279°
2026-04-23 03:40 24.61251 51.01012 34847 ft 427 kts 279°
2026-04-23 03:40 24.62099 50.95661 34850 ft 427 kts 279°
2026-04-23 03:41 24.63282 50.88176 34852 ft 428 kts 279°
2026-04-23 03:41 24.64296 50.81739 34867 ft 427 kts 279°
2026-04-23 03:42 24.65138 50.76386 34865 ft 426 kts 279°
2026-04-23 03:42 24.66146 50.69956 34860 ft 426 kts 279°
2026-04-23 03:43 24.67150 50.63533 34875 ft 426 kts 279°
2026-04-23 03:43 24.68151 50.57112 34876 ft 425 kts 279°
2026-04-23 03:44 24.69141 50.50742 34876 ft 425 kts 279°
2026-04-23 03:44 24.70132 50.44342 34875 ft 424 kts 279°
2026-04-23 03:45 24.71122 50.37941 34873 ft 424 kts 278°
2026-04-23 03:45 24.72108 50.31538 34877 ft 425 kts 278°
2026-04-23 03:46 24.73094 50.25121 34879 ft 425 kts 278°
2026-04-23 03:46 24.74076 50.18707 34879 ft 426 kts 278°
2026-04-23 03:47 24.75059 50.12273 34894 ft 427 kts 278°
2026-04-23 03:47 24.76041 50.05823 34902 ft 427 kts 278°
2026-04-23 03:48 24.77015 49.99406 34903 ft 427 kts 278°
2026-04-23 03:48 24.77991 49.92953 34906 ft 428 kts 278°
2026-04-23 03:49 24.78965 49.86502 34910 ft 428 kts 278°
2026-04-23 03:49 24.79937 49.80041 34911 ft 428 kts 278°
2026-04-23 03:50 24.80909 49.73567 34909 ft 428 kts 278°
2026-04-23 03:50 24.81873 49.67122 34919 ft 427 kts 278°
2026-04-23 03:51 24.82831 49.60696 34917 ft 427 kts 278°
2026-04-23 03:51 24.83790 49.54242 34920 ft 427 kts 278°
2026-04-23 03:52 24.84745 49.47800 34915 ft 426 kts 278°
2026-04-23 03:52 24.85698 49.41346 34918 ft 426 kts 278°
2026-04-23 03:53 24.86648 49.34899 34920 ft 427 kts 278°
2026-04-23 03:53 24.87589 49.28486 34922 ft 427 kts 278°
2026-04-23 03:54 24.88534 49.22034 34929 ft 427 kts 278°
2026-04-23 03:54 24.89476 49.15578 34941 ft 427 kts 278°
2026-04-23 03:55 24.90419 49.09103 34921 ft 427 kts 278°
2026-04-23 03:55 24.91356 49.02639 34931 ft 427 kts 278°
2026-04-23 03:56 24.92284 48.96220 34935 ft 427 kts 278°
2026-04-23 03:56 24.93220 48.89725 34933 ft 426 kts 278°
2026-04-23 03:57 24.94147 48.83276 34931 ft 426 kts 278°
2026-04-23 03:57 24.95070 48.76827 34932 ft 426 kts 278°
2026-04-23 03:58 24.95986 48.70414 34933 ft 426 kts 278°
2026-04-23 03:58 24.96904 48.63962 34914 ft 426 kts 277°
2026-04-23 03:59 24.97821 48.57502 34937 ft 426 kts 277°
2026-04-23 03:59 24.98734 48.51042 34944 ft 426 kts 277°
2026-04-23 04:00 24.99639 48.44623 34948 ft 426 kts 277°
2026-04-23 04:00 25.00546 48.38170 34961 ft 426 kts 277°
2026-04-23 04:01 25.01451 48.31710 34955 ft 425 kts 277°
2026-04-23 04:01 25.02349 48.25276 34953 ft 425 kts 277°
2026-04-23 04:02 25.03247 48.18822 34952 ft 424 kts 277°
2026-04-23 04:02 25.04134 48.12426 34945 ft 425 kts 277°
2026-04-23 04:03 25.05027 48.05970 34950 ft 426 kts 277°
2026-04-23 04:03 25.05918 47.99500 34946 ft 427 kts 277°
2026-04-23 04:04 25.06810 47.93008 34956 ft 427 kts 277°
2026-04-23 04:04 25.07699 47.86517 34961 ft 428 kts 277°
2026-04-23 04:05 25.08585 47.80024 34973 ft 428 kts 277°
2026-04-23 04:05 25.09463 47.73566 34970 ft 428 kts 277°
2026-04-23 04:06 25.10344 47.67064 34971 ft 428 kts 277°
2026-04-23 04:06 25.11223 47.60560 34967 ft 428 kts 277°
2026-04-23 04:07 25.12091 47.54106 34970 ft 427 kts 277°
2026-04-23 04:07 25.12962 47.47618 34971 ft 427 kts 277°
2026-04-23 04:08 25.13829 47.41134 34971 ft 427 kts 277°
2026-04-23 04:08 25.14691 47.34661 34980 ft 426 kts 277°
2026-04-23 04:09 25.15552 47.28181 34979 ft 426 kts 277°
2026-04-23 04:09 25.16408 47.21712 35011 ft 426 kts 277°
2026-04-23 04:10 25.17258 47.15268 34973 ft 427 kts 277°
2026-04-23 04:10 25.18112 47.08773 34986 ft 428 kts 277°
2026-04-23 04:11 25.18965 47.02262 34992 ft 428 kts 277°
2026-04-23 04:11 25.19817 46.95739 34995 ft 429 kts 277°
2026-04-23 04:12 25.20667 46.89204 34995 ft 430 kts 277°
2026-04-23 04:12 25.21515 46.82658 35008 ft 431 kts 277°
2026-04-23 04:13 25.22357 46.76144 35003 ft 431 kts 277°
2026-04-23 04:13 25.23206 46.69551 34977 ft 435 kts 277°
2026-04-23 04:14 25.24056 46.62919 35006 ft 437 kts 277°
2026-04-23 04:14 25.24907 46.56260 34997 ft 438 kts 277°
2026-04-23 04:15 25.25758 46.49574 35012 ft 440 kts 277°
2026-04-23 04:16 25.27028 46.39555 35026 ft 441 kts 277°
2026-04-23 04:16 25.27876 46.32836 35022 ft 441 kts 277°
2026-04-23 04:17 25.28720 46.26125 34994 ft 441 kts 276°
2026-04-23 04:17 25.29561 46.19404 34994 ft 441 kts 276°
2026-04-23 04:18 25.30399 46.12680 35008 ft 441 kts 276°
2026-04-23 04:18 25.31228 46.06014 35006 ft 441 kts 276°
2026-04-23 04:19 25.32058 45.99301 35003 ft 441 kts 276°
2026-04-23 04:19 25.32885 45.92594 35035 ft 438 kts 276°
2026-04-23 04:20 25.33697 45.85994 34998 ft 432 kts 276°
2026-04-23 04:20 25.34505 45.79398 34998 ft 431 kts 276°
2026-04-23 04:21 25.35304 45.72838 34984 ft 432 kts 276°
2026-04-23 04:21 25.36100 45.66283 34983 ft 432 kts 276°
2026-04-23 04:22 25.36902 45.59656 34978 ft 432 kts 276°
2026-04-23 04:22 25.37690 45.53117 34980 ft 431 kts 276°
2026-04-23 04:23 25.38481 45.46531 34973 ft 431 kts 276°
2026-04-23 04:23 25.39269 45.39946 34982 ft 432 kts 276°
2026-04-23 04:24 25.40052 45.33378 35006 ft 431 kts 276°
2026-04-23 04:24 25.40834 45.26793 34993 ft 430 kts 276°
2026-04-23 04:25 25.41603 45.20283 34985 ft 429 kts 276°
2026-04-23 04:25 25.42373 45.13745 34973 ft 428 kts 276°
2026-04-23 04:26 25.43140 45.07210 34968 ft 428 kts 276°
2026-04-23 04:26 25.43904 45.00678 34969 ft 427 kts 276°
2026-04-23 04:27 25.44662 44.94165 34978 ft 426 kts 276°
2026-04-23 04:27 25.45411 44.87701 34956 ft 426 kts 276°
2026-04-23 04:28 25.46412 44.79032 34972 ft 426 kts 276°
2026-04-23 04:28 25.47161 44.72515 34963 ft 426 kts 276°
2026-04-23 04:29 25.47907 44.65999 34956 ft 427 kts 276°
2026-04-23 04:29 25.48651 44.59479 34962 ft 427 kts 276°
2026-04-23 04:30 25.49392 44.52948 34966 ft 427 kts 276°
2026-04-23 04:30 25.50125 44.46469 34965 ft 427 kts 276°
2026-04-23 04:31 25.50861 44.39936 34978 ft 427 kts 276°
2026-04-23 04:31 25.51593 44.33416 34976 ft 426 kts 275°
2026-04-23 04:32 25.52319 44.26916 34972 ft 425 kts 275°
2026-04-23 04:32 25.53042 44.20414 34934 ft 424 kts 275°
2026-04-23 04:33 25.53755 44.13978 34942 ft 424 kts 275°
2026-04-23 04:33 25.54472 44.07486 34940 ft 424 kts 275°
2026-04-23 04:34 25.55185 44.00992 34947 ft 424 kts 275°
2026-04-23 04:34 25.55891 43.94546 34947 ft 424 kts 275°
2026-04-23 04:35 25.56597 43.88068 34941 ft 423 kts 275°
2026-04-23 04:35 25.57300 43.81596 34952 ft 423 kts 275°
2026-04-23 04:36 25.58000 43.75124 34954 ft 422 kts 275°
2026-04-23 04:36 25.58683 43.68771 34942 ft 421 kts 275°
2026-04-23 04:37 25.59385 43.62230 34964 ft 421 kts 275°
2026-04-23 04:37 25.60072 43.55799 34956 ft 419 kts 275°
2026-04-23 04:38 25.60748 43.49437 34947 ft 419 kts 275°
2026-04-23 04:38 25.61426 43.43024 34950 ft 418 kts 275°
2026-04-23 04:39 25.62101 43.36623 34946 ft 417 kts 275°
2026-04-23 04:39 25.62771 43.30240 34940 ft 417 kts 275°
2026-04-23 04:40 25.63437 43.23866 34933 ft 416 kts 275°
2026-04-23 04:40 25.64096 43.17542 34947 ft 415 kts 275°
2026-04-23 04:41 25.64755 43.11182 34938 ft 414 kts 275°
2026-04-23 04:41 25.65407 43.04857 34933 ft 414 kts 275°
2026-04-23 04:42 25.66059 42.98511 34940 ft 413 kts 274°
2026-04-23 04:42 25.66707 42.92181 34940 ft 412 kts 274°
2026-04-23 04:43 25.67350 42.85872 34922 ft 412 kts 274°
2026-04-23 04:43 25.67990 42.79552 34916 ft 412 kts 274°
2026-04-23 04:44 25.68623 42.73284 34913 ft 412 kts 274°
2026-04-23 04:44 25.69257 42.66981 34913 ft 412 kts 274°
2026-04-23 04:45 25.69889 42.60662 34937 ft 412 kts 274°
2026-04-23 04:45 25.70519 42.54346 34926 ft 412 kts 274°
2026-04-23 04:46 25.71144 42.48045 34910 ft 412 kts 274°
2026-04-23 04:46 25.71769 42.41717 34922 ft 412 kts 274°
2026-04-23 04:47 25.72387 42.35427 34927 ft 413 kts 274°
2026-04-23 04:47 25.73007 42.29097 34929 ft 413 kts 274°
2026-04-23 04:48 25.73624 42.22771 34937 ft 413 kts 274°
2026-04-23 04:48 25.74238 42.16438 34946 ft 413 kts 274°
2026-04-23 04:49 25.74850 42.10100 34945 ft 412 kts 274°
2026-04-23 04:49 25.75457 42.03787 34936 ft 411 kts 274°
2026-04-23 04:50 25.76057 41.97515 34954 ft 411 kts 274°
2026-04-23 04:50 25.76658 41.91207 34948 ft 410 kts 274°
2026-04-23 04:51 25.77253 41.84934 34947 ft 410 kts 274°
2026-04-23 04:51 25.77849 41.78620 34942 ft 409 kts 274°
2026-04-23 04:52 25.78439 41.72340 34953 ft 409 kts 274°
2026-04-23 04:52 25.79022 41.66095 34949 ft 408 kts 274°
2026-04-23 04:53 25.79606 41.59816 34929 ft 408 kts 274°
2026-04-23 04:53 25.80188 41.53539 34941 ft 409 kts 274°
2026-04-23 04:54 25.80764 41.47292 34951 ft 410 kts 274°
2026-04-23 04:54 25.81341 41.40998 34955 ft 411 kts 274°
2026-04-23 04:55 25.81918 41.34680 34980 ft 411 kts 274°
2026-04-23 04:55 25.82490 41.28390 34969 ft 412 kts 273°
2026-04-23 04:56 25.83064 41.22035 34973 ft 411 kts 273°
2026-04-23 04:56 25.83633 41.15711 34976 ft 411 kts 273°
2026-04-23 04:57 25.84194 41.09445 34961 ft 411 kts 273°
2026-04-23 04:57 25.84758 41.03123 34963 ft 411 kts 273°
2026-04-23 04:58 25.85318 40.96799 34969 ft 411 kts 273°
2026-04-23 04:58 25.85875 40.90478 34986 ft 411 kts 273°
2026-04-23 04:59 25.86431 40.84152 34973 ft 412 kts 273°
2026-04-23 04:59 25.86980 40.77864 34975 ft 412 kts 273°
2026-04-23 05:00 25.87531 40.71526 34955 ft 412 kts 273°
2026-04-23 05:00 25.88075 40.65234 34973 ft 411 kts 272°
2026-04-23 05:01 25.88622 40.58872 34976 ft 412 kts 272°
2026-04-23 05:01 25.89163 40.52539 34981 ft 412 kts 272°
2026-04-23 05:02 25.89703 40.46201 34988 ft 412 kts 272°
2026-04-23 05:02 25.90240 40.39862 34979 ft 413 kts 272°
2026-04-23 05:03 25.90776 40.33501 34984 ft 413 kts 272°
2026-04-23 05:03 25.91306 40.27175 34987 ft 413 kts 272°
2026-04-23 05:04 25.91837 40.20798 34980 ft 414 kts 272°
2026-04-23 05:04 25.92357 40.14528 34989 ft 415 kts 272°
2026-04-23 05:05 25.92889 40.08076 34978 ft 415 kts 272°
2026-04-23 05:05 25.93413 40.01695 34981 ft 415 kts 272°
2026-04-23 05:06 25.93934 39.95308 34973 ft 415 kts 272°
2026-04-23 05:06 25.94453 39.88907 34968 ft 415 kts 272°
2026-04-23 05:07 25.94967 39.82525 35341 ft 417 kts 272°
2026-04-23 05:07 25.95225 39.79327 35905 ft 414 kts 272°
2026-04-23 05:07 25.95469 39.76290 36349 ft 412 kts 272°
2026-04-23 05:08 25.95721 39.73145 36832 ft 410 kts 272°
2026-04-23 05:08 25.95972 39.69995 37309 ft 408 kts 271°
2026-04-23 05:08 25.96221 39.66858 37751 ft 407 kts 271°
2026-04-23 05:08 25.96470 39.63710 37929 ft 411 kts 271°
2026-04-23 05:09 25.97211 39.57681 37936 ft 407 kts 281°
2026-04-23 05:09 25.99138 39.53319 37928 ft 428 kts 298°
2026-04-23 05:10 26.00205 39.51877 37926 ft 435 kts 304°
2026-04-23 05:10 26.04523 39.47190 37925 ft 441 kts 307°
2026-04-23 05:11 26.08963 39.42488 37934 ft 438 kts 306°
2026-04-23 05:11 26.13324 39.37765 37916 ft 436 kts 306°
2026-04-23 05:12 26.17622 39.33074 37908 ft 435 kts 306°
2026-04-23 05:12 26.21935 39.28359 37902 ft 434 kts 306°
2026-04-23 05:13 26.26232 39.23658 37890 ft 432 kts 306°
2026-04-23 05:14 26.32673 39.16599 37944 ft 437 kts 306°
2026-04-23 05:14 26.36304 39.12612 37939 ft 439 kts 306°
2026-04-23 05:15 26.41367 39.07059 37949 ft 439 kts 306°
2026-04-23 05:15 26.44996 39.03068 37951 ft 440 kts 306°
2026-04-23 05:16 26.49327 38.98304 37945 ft 436 kts 306°
2026-04-23 05:16 26.53645 38.93542 37932 ft 435 kts 306°
2026-04-23 05:17 26.57951 38.88789 37945 ft 434 kts 306°
2026-04-23 05:17 26.62224 38.84067 37933 ft 434 kts 306°
2026-04-23 05:18 26.66524 38.79311 37935 ft 434 kts 306°
2026-04-23 05:18 26.70812 38.74562 37930 ft 434 kts 306°
2026-04-23 05:19 26.75106 38.69802 37937 ft 435 kts 306°
2026-04-23 05:19 26.79402 38.65034 37950 ft 435 kts 306°
2026-04-23 05:20 26.83704 38.60254 37973 ft 435 kts 306°
2026-04-23 05:20 26.87970 38.55511 37968 ft 434 kts 306°
2026-04-23 05:21 26.92247 38.50749 37962 ft 433 kts 306°
2026-04-23 05:21 26.96513 38.45993 37952 ft 432 kts 306°
2026-04-23 05:22 27.00770 38.41242 37945 ft 431 kts 306°
2026-04-23 05:22 27.05016 38.36497 37938 ft 430 kts 306°
2026-04-23 05:23 27.09226 38.31787 37937 ft 430 kts 306°
2026-04-23 05:23 27.13465 38.27040 37940 ft 430 kts 306°
2026-04-23 05:24 27.17703 38.22288 37970 ft 430 kts 306°
2026-04-23 05:24 27.21940 38.17532 37990 ft 431 kts 306°
2026-04-23 05:25 27.26185 38.12763 37977 ft 430 kts 306°
2026-04-23 05:25 27.30387 38.08037 37972 ft 429 kts 306°
2026-04-23 05:26 27.34602 38.03291 37975 ft 428 kts 306°
2026-04-23 05:26 27.38806 37.98550 37974 ft 427 kts 306°
2026-04-23 05:27 27.42998 37.93818 37957 ft 426 kts 306°
2026-04-23 05:27 27.47181 37.89090 37959 ft 426 kts 306°
2026-04-23 05:28 27.51363 37.84358 37953 ft 426 kts 306°
2026-04-23 05:28 27.55510 37.79660 37956 ft 426 kts 306°
2026-04-23 05:29 27.59686 37.74925 37957 ft 426 kts 306°
2026-04-23 05:29 27.63870 37.70175 37969 ft 426 kts 306°
2026-04-23 05:30 27.68050 37.65423 37968 ft 427 kts 306°
2026-04-23 05:30 27.72229 37.60668 37976 ft 426 kts 306°
2026-04-23 05:31 27.76385 37.55934 37971 ft 426 kts 306°
2026-04-23 05:31 27.80560 37.51173 37966 ft 426 kts 306°
2026-04-23 05:32 27.84729 37.46412 37972 ft 426 kts 306°
2026-04-23 05:32 27.88902 37.41642 37966 ft 426 kts 306°
2026-04-23 05:33 27.93074 37.36866 37974 ft 427 kts 305°
2026-04-23 05:33 27.97256 37.32075 37973 ft 427 kts 305°
2026-04-23 05:34 28.01406 37.27314 37967 ft 427 kts 305°
2026-04-23 05:34 28.05575 37.22526 37985 ft 427 kts 305°
2026-04-23 05:35 28.09746 37.17730 37973 ft 427 kts 305°
2026-04-23 05:35 28.13912 37.12934 37952 ft 427 kts 305°
2026-04-23 05:36 28.18073 37.08138 37945 ft 427 kts 305°
2026-04-23 05:36 28.22236 37.03333 37944 ft 427 kts 305°
2026-04-23 05:37 28.26398 36.98524 37969 ft 427 kts 305°
2026-04-23 05:37 28.30541 36.93730 37968 ft 428 kts 305°
2026-04-23 05:38 28.34719 36.88892 37970 ft 429 kts 305°
2026-04-23 05:38 28.38900 36.84045 37981 ft 429 kts 305°
2026-04-23 05:39 28.43086 36.79186 37987 ft 430 kts 305°
2026-04-23 05:39 28.47242 36.74356 38002 ft 430 kts 305°
2026-04-23 05:40 28.51429 36.69484 37992 ft 431 kts 305°
2026-04-23 05:40 28.55619 36.64602 37990 ft 431 kts 305°
2026-04-23 05:41 28.59806 36.59718 37985 ft 430 kts 305°
2026-04-23 05:41 28.63985 36.54838 37972 ft 430 kts 305°
2026-04-23 05:42 28.68165 36.49948 37970 ft 431 kts 305°
2026-04-23 05:42 28.72356 36.45041 37960 ft 432 kts 305°
2026-04-23 05:43 28.76544 36.40133 37965 ft 433 kts 305°
2026-04-23 05:43 28.80723 36.35229 37972 ft 433 kts 305°
2026-04-23 05:44 28.84925 36.30292 37970 ft 433 kts 305°
2026-04-23 05:44 28.89127 36.25348 37979 ft 433 kts 305°
2026-04-23 05:45 28.93328 36.20398 37971 ft 434 kts 306°
2026-04-23 05:45 28.97516 36.15460 37965 ft 435 kts 306°
2026-04-23 05:46 29.01722 36.10493 37969 ft 435 kts 305°
2026-04-23 05:46 29.05935 36.05510 37968 ft 436 kts 306°
2026-04-23 05:47 29.10147 36.00525 37972 ft 436 kts 306°
2026-04-23 05:47 29.14364 35.95527 37972 ft 436 kts 306°
2026-04-23 05:48 29.18578 35.90526 37972 ft 436 kts 306°
2026-04-23 05:48 29.22769 35.85546 37973 ft 436 kts 306°
2026-04-23 05:49 29.26981 35.80533 37978 ft 436 kts 306°
2026-04-23 05:49 29.31188 35.75522 37976 ft 436 kts 306°
2026-04-23 05:50 29.35397 35.70501 37976 ft 437 kts 306°
2026-04-23 05:50 29.39604 35.65476 38015 ft 436 kts 306°
2026-04-23 05:51 29.43819 35.60435 37969 ft 438 kts 306°
2026-04-23 05:51 29.48009 35.55418 37981 ft 438 kts 306°
2026-04-23 05:52 29.52226 35.50360 37976 ft 439 kts 306°
2026-04-23 05:52 29.56451 35.45285 37987 ft 441 kts 306°
2026-04-23 05:53 29.60700 35.40174 37989 ft 443 kts 306°
2026-04-23 05:53 29.64961 35.35050 37992 ft 442 kts 306°
2026-04-23 05:54 29.69203 35.29942 37988 ft 441 kts 306°
2026-04-23 05:54 29.73400 35.24875 37979 ft 440 kts 306°
2026-04-23 05:55 29.77631 35.19764 37988 ft 440 kts 306°
2026-04-23 05:55 29.81853 35.14656 37969 ft 440 kts 306°
2026-04-23 05:56 29.86076 35.09538 37968 ft 440 kts 306°
2026-04-23 05:56 29.90285 35.04433 37958 ft 439 kts 306°
2026-04-23 05:57 29.94489 34.99327 37964 ft 438 kts 306°
2026-04-23 05:57 29.98663 34.94248 37952 ft 439 kts 306°
2026-04-23 05:58 30.02867 34.89129 37964 ft 440 kts 306°
2026-04-23 05:58 30.07077 34.83995 37975 ft 441 kts 306°
2026-04-23 05:59 30.11299 34.78838 37978 ft 442 kts 306°
2026-04-23 05:59 30.15519 34.73678 37982 ft 443 kts 306°
2026-04-23 06:00 30.19759 34.68485 37992 ft 444 kts 307°
2026-04-23 06:00 30.24005 34.63282 38003 ft 445 kts 307°
2026-04-23 06:01 30.27535 34.58949 38009 ft 445 kts 307°
2026-04-23 06:01 30.32472 34.52881 38005 ft 445 kts 307°
2026-04-23 06:02 30.36023 34.48510 38009 ft 445 kts 307°
2026-04-23 06:02 30.40244 34.43307 38002 ft 445 kts 307°
2026-04-23 06:03 30.44487 34.38072 38007 ft 445 kts 307°
2026-04-23 06:03 30.48726 34.32834 37996 ft 444 kts 307°
2026-04-23 06:04 30.52957 34.27597 37987 ft 445 kts 307°
2026-04-23 06:04 30.57186 34.22357 37995 ft 445 kts 307°
2026-04-23 06:05 30.61394 34.17135 37997 ft 445 kts 307°
2026-04-23 06:05 30.65626 34.11877 38000 ft 446 kts 307°
2026-04-23 06:06 30.69860 34.06609 37999 ft 446 kts 307°
2026-04-23 06:06 30.74104 34.01321 38002 ft 447 kts 307°
2026-04-23 06:07 30.78345 33.96030 38007 ft 447 kts 307°
2026-04-23 06:07 30.82559 33.90765 38006 ft 447 kts 307°
2026-04-23 06:08 30.86797 33.85462 38007 ft 447 kts 307°
2026-04-23 06:08 30.91036 33.80151 38006 ft 448 kts 307°
2026-04-23 06:09 30.95284 33.74822 38001 ft 448 kts 307°
2026-04-23 06:09 30.99523 33.69496 38000 ft 448 kts 307°
2026-04-23 06:10 31.03730 33.64203 37999 ft 448 kts 307°
2026-04-23 06:10 31.07969 33.58862 37999 ft 448 kts 307°
2026-04-23 06:11 31.12207 33.53515 37998 ft 447 kts 307°
2026-04-23 06:11 31.16409 33.48205 37994 ft 447 kts 307°
2026-04-23 06:12 31.20629 33.42866 37992 ft 447 kts 307°
2026-04-23 06:12 31.26955 33.34847 37991 ft 447 kts 307°
2026-04-23 06:13 31.31170 33.29495 37994 ft 447 kts 307°
2026-04-23 06:13 31.35387 33.24133 37988 ft 447 kts 307°
2026-04-23 06:14 31.39595 33.18774 37991 ft 447 kts 307°
2026-04-23 06:14 31.43781 33.13436 37976 ft 448 kts 307°
2026-04-23 06:15 31.47997 33.08052 37995 ft 448 kts 307°
2026-04-23 06:15 31.52214 33.02659 37994 ft 448 kts 307°
2026-04-23 06:16 31.56391 32.97310 37993 ft 447 kts 307°
2026-04-23 06:16 31.60594 32.91919 37989 ft 447 kts 307°
2026-04-23 06:17 31.64801 32.86515 37994 ft 448 kts 307°
2026-04-23 06:17 31.69001 32.81113 37994 ft 447 kts 307°
2026-04-23 06:18 31.73194 32.75712 37988 ft 447 kts 307°
2026-04-23 06:18 31.77355 32.70345 37986 ft 447 kts 307°
2026-04-23 06:19 31.81538 32.64941 37990 ft 447 kts 307°
2026-04-23 06:19 31.85723 32.59526 37994 ft 447 kts 307°
2026-04-23 06:20 31.89901 32.54113 37995 ft 447 kts 307°
2026-04-23 06:20 31.94052 32.48727 38002 ft 446 kts 307°
2026-04-23 06:21 31.98226 32.43304 37998 ft 446 kts 307°
2026-04-23 06:21 32.02397 32.37877 37999 ft 446 kts 307°
2026-04-23 06:22 32.06570 32.32438 38004 ft 446 kts 307°
2026-04-23 06:22 32.10709 32.27037 38002 ft 446 kts 307°
2026-04-23 06:23 32.14865 32.21604 38001 ft 446 kts 307°
2026-04-23 06:23 32.19018 32.16168 37991 ft 445 kts 307°
2026-04-23 06:24 32.23164 32.10733 37994 ft 445 kts 307°
2026-04-23 06:24 32.27304 32.05298 38002 ft 445 kts 307°
2026-04-23 06:25 32.31418 31.99889 38002 ft 445 kts 307°
2026-04-23 06:25 32.35549 31.94450 38001 ft 445 kts 307°
2026-04-23 06:26 32.39677 31.89008 37990 ft 444 kts 306°
2026-04-23 06:26 32.43804 31.83557 37991 ft 444 kts 306°
2026-04-23 06:27 32.47922 31.78111 38011 ft 443 kts 306°
2026-04-23 06:27 32.52031 31.72668 38009 ft 442 kts 306°
2026-04-23 06:28 32.56130 31.67231 38003 ft 442 kts 306°
2026-04-23 06:28 32.60222 31.61795 37996 ft 442 kts 306°
2026-04-23 06:29 32.64312 31.56353 37994 ft 441 kts 306°
2026-04-23 06:29 32.68370 31.50946 38005 ft 441 kts 306°
2026-04-23 06:30 32.72452 31.45500 37999 ft 441 kts 306°
2026-04-23 06:30 32.76536 31.40040 37998 ft 441 kts 306°
2026-04-23 06:31 32.80616 31.34582 37996 ft 441 kts 306°
2026-04-23 06:31 32.84691 31.29125 37996 ft 441 kts 306°
2026-04-23 06:32 32.88762 31.23666 38010 ft 441 kts 306°
2026-04-23 06:32 32.92810 31.18230 37998 ft 441 kts 306°
2026-04-23 06:33 32.96877 31.12759 37997 ft 441 kts 306°
2026-04-23 06:33 33.00940 31.07287 37997 ft 441 kts 306°
2026-04-23 06:34 33.05010 31.01796 37999 ft 441 kts 306°
2026-04-23 06:34 33.09222 30.96456 38015 ft 446 kts 313°
2026-04-23 06:35 33.14284 30.92070 38008 ft 455 kts 323°
2026-04-23 06:35 33.19748 30.88312 38003 ft 455 kts 323°
2026-04-23 06:36 33.25231 30.84518 38002 ft 455 kts 323°
2026-04-23 06:36 33.30709 30.80731 38001 ft 455 kts 323°
2026-04-23 06:37 33.36188 30.76940 37997 ft 455 kts 323°
2026-04-23 06:37 33.41673 30.73140 38008 ft 455 kts 323°
2026-04-23 06:38 33.47120 30.69361 38007 ft 454 kts 323°
2026-04-23 06:38 33.52588 30.65562 37994 ft 454 kts 323°
2026-04-23 06:39 33.58052 30.61760 37999 ft 453 kts 323°
2026-04-23 06:39 33.63507 30.57958 37998 ft 453 kts 323°
2026-04-23 06:40 33.68964 30.54148 37992 ft 453 kts 323°
2026-04-23 06:40 33.74394 30.50354 37987 ft 453 kts 323°
2026-04-23 06:41 33.79845 30.46538 37983 ft 453 kts 323°
2026-04-23 06:41 33.85299 30.42715 37986 ft 453 kts 323°
2026-04-23 06:42 33.90748 30.38889 37999 ft 453 kts 323°
2026-04-23 06:42 33.96204 30.35052 37993 ft 454 kts 323°
2026-04-23 06:43 34.01653 30.31214 37993 ft 454 kts 323°
2026-04-23 06:43 34.07110 30.27366 37994 ft 454 kts 323°
2026-04-23 06:44 34.12529 30.23539 37994 ft 454 kts 323°
2026-04-23 06:44 34.17982 30.19681 37994 ft 454 kts 323°
2026-04-23 06:45 34.23434 30.15819 38002 ft 454 kts 323°
2026-04-23 06:45 34.28889 30.11948 37988 ft 455 kts 324°
2026-04-23 06:46 34.34349 30.08068 37994 ft 455 kts 324°
2026-04-23 06:46 34.39774 30.04208 37991 ft 455 kts 324°
2026-04-23 06:47 34.45054 30.00043 37990 ft 450 kts 317°
2026-04-23 06:47 34.49693 29.95037 37989 ft 444 kts 309°
2026-04-23 06:48 34.53287 29.90590 37987 ft 444 kts 310°
2026-04-23 06:48 34.57635 29.85261 37985 ft 444 kts 310°
2026-04-23 06:49 34.61976 29.79912 37995 ft 444 kts 310°
2026-04-23 06:49 34.66298 29.74567 37993 ft 443 kts 309°
2026-04-23 06:50 34.70592 29.69247 37988 ft 443 kts 309°
2026-04-23 06:50 34.74909 29.63889 37985 ft 443 kts 309°
2026-04-23 06:51 34.79210 29.58544 37981 ft 443 kts 309°
2026-04-23 06:51 34.83523 29.53175 38006 ft 442 kts 309°
2026-04-23 06:52 34.87831 29.47803 37972 ft 443 kts 309°
2026-04-23 06:52 34.92113 29.42457 37983 ft 443 kts 309°
2026-04-23 06:53 34.96420 29.37070 37973 ft 443 kts 309°
2026-04-23 06:53 35.00968 29.31943 37975 ft 448 kts 317°
2026-04-23 06:54 35.05985 29.27391 37996 ft 449 kts 317°
2026-04-23 06:54 35.10995 29.22804 38006 ft 449 kts 317°
2026-04-23 06:55 35.15966 29.18252 38018 ft 449 kts 317°
2026-04-23 06:55 35.20977 29.13663 37982 ft 450 kts 317°
2026-04-23 06:56 35.25982 29.09074 37978 ft 450 kts 317°
2026-04-23 06:56 35.30991 29.04474 37976 ft 449 kts 317°
2026-04-23 06:57 35.35987 28.99878 37975 ft 449 kts 317°
2026-04-23 06:57 35.40986 28.95273 37992 ft 449 kts 317°
2026-04-23 06:58 35.45977 28.90667 37995 ft 449 kts 317°
2026-04-23 06:58 35.50952 28.86068 37973 ft 449 kts 317°
2026-04-23 06:59 35.55951 28.81440 37973 ft 449 kts 317°
2026-04-23 06:59 35.60916 28.76836 37970 ft 449 kts 317°
2026-04-23 07:00 35.65906 28.72202 37973 ft 449 kts 317°
2026-04-23 07:00 35.70893 28.67563 37970 ft 449 kts 317°
2026-04-23 07:01 35.75888 28.62908 37960 ft 451 kts 317°
2026-04-23 07:01 35.80865 28.58264 37959 ft 451 kts 317°
2026-04-23 07:02 35.85865 28.53591 37961 ft 451 kts 317°
2026-04-23 07:02 35.90865 28.48909 37963 ft 451 kts 317°
2026-04-23 07:03 35.95872 28.44214 37961 ft 451 kts 317°
2026-04-23 07:03 36.00872 28.39517 37963 ft 452 kts 317°
2026-04-23 07:04 36.05878 28.34807 37936 ft 453 kts 317°
2026-04-23 07:04 36.10886 28.30087 37932 ft 453 kts 317°
2026-04-23 07:05 36.15891 28.25364 37927 ft 453 kts 317°
2026-04-23 07:05 36.20861 28.20665 37928 ft 452 kts 317°
2026-04-23 07:06 36.25856 28.15935 37949 ft 452 kts 317°
2026-04-23 07:06 36.30853 28.11194 37956 ft 452 kts 317°
2026-04-23 07:07 36.35701 28.06253 37949 ft 449 kts 311°
2026-04-23 07:07 36.40264 28.00950 37940 ft 449 kts 312°
2026-04-23 07:08 36.44851 27.95676 37933 ft 449 kts 312°
2026-04-23 07:08 36.49433 27.90384 37930 ft 449 kts 312°
2026-04-23 07:09 36.53999 27.85092 37935 ft 449 kts 312°
2026-04-23 07:09 36.58564 27.79793 37929 ft 449 kts 312°
2026-04-23 07:10 36.63104 27.74513 37966 ft 449 kts 312°
2026-04-23 07:10 36.67687 27.69175 37938 ft 450 kts 312°
2026-04-23 07:11 36.72256 27.63845 37934 ft 450 kts 312°
2026-04-23 07:12 36.79096 27.55847 37953 ft 451 kts 312°
2026-04-23 07:12 36.83672 27.50484 37953 ft 450 kts 312°
2026-04-23 07:13 36.88236 27.45128 37946 ft 450 kts 312°
2026-04-23 07:13 36.92794 27.39769 37939 ft 449 kts 312°
2026-04-23 07:14 36.97345 27.34407 37943 ft 449 kts 311°
2026-04-23 07:14 37.01871 27.29068 37946 ft 450 kts 311°
2026-04-23 07:15 37.06420 27.23692 37955 ft 450 kts 311°
2026-04-23 07:15 37.10965 27.18311 37949 ft 449 kts 311°
2026-04-23 07:16 37.15504 27.12928 37958 ft 449 kts 311°
2026-04-23 07:16 37.20034 27.07545 37958 ft 448 kts 311°
2026-04-23 07:17 37.24526 27.02200 37977 ft 447 kts 311°
2026-04-23 07:17 37.29051 26.96804 37955 ft 448 kts 311°
2026-04-23 07:18 37.33570 26.91407 37959 ft 448 kts 311°
2026-04-23 07:18 37.38096 26.85992 37985 ft 450 kts 311°
2026-04-23 07:19 37.42700 26.80644 37961 ft 451 kts 314°
2026-04-23 07:19 37.47500 26.75566 37951 ft 451 kts 315°
2026-04-23 07:20 37.52281 26.70462 37949 ft 450 kts 314°
2026-04-23 07:20 37.57006 26.65356 37947 ft 450 kts 314°
2026-04-23 07:21 37.61747 26.60213 37955 ft 450 kts 314°
2026-04-23 07:21 37.66496 26.55053 37960 ft 450 kts 314°
2026-04-23 07:22 37.71241 26.49891 37966 ft 450 kts 314°
2026-04-23 07:22 37.75991 26.44730 37973 ft 451 kts 314°
2026-04-23 07:23 37.80747 26.39551 37976 ft 451 kts 314°
2026-04-23 07:23 37.85471 26.34398 37994 ft 451 kts 314°
2026-04-23 07:24 37.90215 26.29206 37987 ft 451 kts 314°
2026-04-23 07:24 37.94969 26.23982 37990 ft 451 kts 314°
2026-04-23 07:25 37.99704 26.18772 37987 ft 451 kts 314°
2026-04-23 07:25 38.04436 26.13557 37988 ft 450 kts 314°
2026-04-23 07:26 38.09165 26.08336 37991 ft 450 kts 314°
2026-04-23 07:26 38.13890 26.03108 37991 ft 451 kts 314°
2026-04-23 07:27 38.18594 25.97894 37991 ft 451 kts 314°
2026-04-23 07:27 38.23327 25.92638 37985 ft 451 kts 314°
2026-04-23 07:28 38.28228 25.87621 37978 ft 453 kts 317°
2026-04-23 07:28 38.33238 25.82750 37978 ft 453 kts 317°
2026-04-23 07:29 38.38238 25.77873 37980 ft 452 kts 317°
2026-04-23 07:29 38.43246 25.72988 38007 ft 453 kts 317°
2026-04-23 07:30 38.48216 25.68131 38009 ft 453 kts 317°
2026-04-23 07:30 38.53224 25.63226 38018 ft 453 kts 317°
2026-04-23 07:31 38.58228 25.58317 38015 ft 453 kts 317°
2026-04-23 07:31 38.63197 25.53434 38022 ft 453 kts 317°
2026-04-23 07:32 38.68190 25.48517 38048 ft 453 kts 317°
2026-04-23 07:32 38.73198 25.43576 38021 ft 454 kts 317°
2026-04-23 07:33 38.78194 25.38639 38032 ft 454 kts 317°
2026-04-23 07:33 38.83192 25.33691 38023 ft 454 kts 317°
2026-04-23 07:34 38.88189 25.28734 38029 ft 454 kts 317°
2026-04-23 07:34 38.93188 25.23767 38036 ft 454 kts 317°
2026-04-23 07:35 38.98182 25.18795 38031 ft 454 kts 317°
2026-04-23 07:35 39.03148 25.13843 38059 ft 455 kts 317°
2026-04-23 07:36 39.08151 25.08844 38051 ft 455 kts 317°
2026-04-23 07:36 39.12316 25.04676 38031 ft 456 kts 317°
2026-04-23 07:37 39.17326 24.99652 38045 ft 456 kts 317°
2026-04-23 07:37 39.22336 24.94620 38060 ft 457 kts 317°
2026-04-23 07:38 39.27357 24.89568 38053 ft 458 kts 317°
2026-04-23 07:38 39.32380 24.84505 38059 ft 458 kts 317°
2026-04-23 07:39 39.37404 24.79431 38060 ft 459 kts 317°
2026-04-23 07:39 39.42405 24.74371 38072 ft 459 kts 317°
2026-04-23 07:40 39.47443 24.69263 38074 ft 459 kts 317°
2026-04-23 07:40 39.52482 24.64141 38077 ft 461 kts 318°
2026-04-23 07:41 39.57497 24.59039 38085 ft 461 kts 318°
2026-04-23 07:41 39.62551 24.53886 38080 ft 462 kts 318°
2026-04-23 07:42 39.67603 24.48726 38089 ft 462 kts 318°
2026-04-23 07:42 39.72659 24.43552 38081 ft 462 kts 318°
2026-04-23 07:43 39.77716 24.38365 38098 ft 463 kts 318°
2026-04-23 07:43 39.82748 24.33194 38080 ft 463 kts 318°
2026-04-23 07:44 39.87801 24.27993 38081 ft 462 kts 318°
2026-04-23 07:44 39.92850 24.22785 38081 ft 462 kts 318°
2026-04-23 07:45 39.97896 24.17571 38085 ft 463 kts 318°
2026-04-23 07:45 40.02912 24.12376 38099 ft 463 kts 319°
2026-04-23 07:46 40.07961 24.07137 38089 ft 464 kts 319°
2026-04-23 07:46 40.13015 24.01885 38095 ft 464 kts 319°
2026-04-23 07:47 40.18063 23.96628 38096 ft 463 kts 319°
2026-04-23 07:47 40.23102 23.91370 38098 ft 463 kts 319°
2026-04-23 07:48 40.28136 23.86106 38099 ft 463 kts 319°
2026-04-23 07:48 40.33163 23.80839 38103 ft 463 kts 319°
2026-04-23 07:49 40.38162 23.75591 38102 ft 462 kts 319°
2026-04-23 07:49 40.43183 23.70310 38111 ft 462 kts 319°
2026-04-23 07:50 40.48209 23.65013 38111 ft 462 kts 319°
2026-04-23 07:50 40.53228 23.59714 38119 ft 463 kts 319°
2026-04-23 07:51 40.58225 23.54425 38104 ft 464 kts 319°
2026-04-23 07:51 40.63254 23.49094 38115 ft 464 kts 319°
2026-04-23 07:52 40.68275 23.43761 38115 ft 464 kts 319°
2026-04-23 07:52 40.73308 23.38404 38120 ft 464 kts 319°
2026-04-23 07:53 40.78336 23.33041 38120 ft 464 kts 319°
2026-04-23 07:53 40.83333 23.27700 38113 ft 465 kts 319°
2026-04-23 07:54 40.88367 23.22310 38101 ft 465 kts 319°
2026-04-23 07:54 40.93394 23.16916 38109 ft 466 kts 319°
2026-04-23 07:55 40.98393 23.11543 38107 ft 466 kts 319°
2026-04-23 07:55 41.03430 23.06119 38106 ft 466 kts 319°
2026-04-23 07:56 41.08425 23.00617 38075 ft 467 kts 316°
2026-04-23 07:56 41.12909 22.94386 38089 ft 467 kts 309°
2026-04-23 07:57 41.17104 22.87773 38112 ft 468 kts 310°
2026-04-23 07:57 41.21337 22.81166 38120 ft 469 kts 310°
2026-04-23 07:58 41.25527 22.74586 38113 ft 469 kts 310°
2026-04-23 07:58 41.29916 22.68151 38115 ft 469 kts 312°
2026-04-23 07:59 41.34342 22.61762 38114 ft 469 kts 312°
2026-04-23 07:59 41.38735 22.55340 38105 ft 469 kts 312°
2026-04-23 08:00 41.43117 22.48900 38128 ft 469 kts 312°
2026-04-23 08:00 41.47493 22.42452 38139 ft 468 kts 312°
2026-04-23 08:01 41.51839 22.36036 38132 ft 468 kts 312°
2026-04-23 08:01 41.56208 22.29572 38113 ft 468 kts 312°
2026-04-23 08:02 41.60564 22.23113 38102 ft 468 kts 312°
2026-04-23 08:02 41.64913 22.16649 38100 ft 468 kts 312°
2026-04-23 08:03 41.69270 22.10159 38096 ft 469 kts 312°
2026-04-23 08:03 41.73607 22.03686 38104 ft 470 kts 312°
2026-04-23 08:04 41.77986 21.97136 38109 ft 471 kts 312°
2026-04-23 08:04 41.82354 21.90588 38113 ft 471 kts 312°
2026-04-23 08:05 41.86727 21.84016 38116 ft 472 kts 312°
2026-04-23 08:05 41.91065 21.77485 38112 ft 472 kts 312°
2026-04-23 08:06 41.95437 21.70885 38121 ft 473 kts 313°
2026-04-23 08:06 41.99810 21.64270 38148 ft 473 kts 313°
2026-04-23 08:07 42.04192 21.57629 38151 ft 474 kts 313°
2026-04-23 08:07 42.08562 21.50988 38140 ft 473 kts 313°
2026-04-23 08:08 42.12902 21.44379 38136 ft 473 kts 312°
2026-04-23 08:08 42.17256 21.37723 38116 ft 473 kts 312°
2026-04-23 08:09 42.21530 21.30938 38113 ft 474 kts 311°
2026-04-23 08:09 42.25795 21.24131 38129 ft 475 kts 311°
2026-04-23 08:10 42.30065 21.17331 38135 ft 475 kts 311°
2026-04-23 08:10 42.36492 21.07076 38134 ft 477 kts 311°
2026-04-23 08:11 42.40778 21.00219 38155 ft 478 kts 311°
2026-04-23 08:11 42.45041 20.93382 38163 ft 478 kts 311°
2026-04-23 08:12 42.49329 20.86488 38138 ft 478 kts 311°
2026-04-23 08:12 42.53617 20.79578 38127 ft 479 kts 311°
2026-04-23 08:13 42.57902 20.72658 38149 ft 479 kts 311°
2026-04-23 08:13 42.62196 20.65706 38150 ft 480 kts 311°
2026-04-23 08:14 42.66479 20.58756 38154 ft 480 kts 311°
2026-04-23 08:14 42.70732 20.51838 38153 ft 480 kts 311°
2026-04-23 08:15 42.75011 20.44862 38157 ft 480 kts 311°
2026-04-23 08:15 42.79291 20.37865 38141 ft 481 kts 311°
2026-04-23 08:16 42.83552 20.30820 38164 ft 483 kts 309°
2026-04-23 08:16 42.87479 20.23359 38169 ft 484 kts 308°
2026-04-23 08:17 42.91401 20.15947 38179 ft 485 kts 308°
2026-04-23 08:17 42.95348 20.08476 38175 ft 485 kts 308°
2026-04-23 08:18 42.99283 20.00996 38181 ft 485 kts 308°
2026-04-23 08:18 43.03211 19.93503 38180 ft 485 kts 308°
2026-04-23 08:19 43.07134 19.85997 38180 ft 484 kts 308°
2026-04-23 08:19 43.11020 19.78540 38163 ft 483 kts 308°
2026-04-23 08:20 43.14923 19.71032 38165 ft 484 kts 308°
2026-04-23 08:20 43.18833 19.63491 38169 ft 485 kts 308°
2026-04-23 08:21 43.22736 19.55946 38176 ft 486 kts 307°
2026-04-23 08:21 43.26643 19.48373 38175 ft 486 kts 307°
2026-04-23 08:22 43.30545 19.40786 38196 ft 486 kts 308°
2026-04-23 08:22 43.33780 19.34486 38172 ft 486 kts 308°
2026-04-23 08:23 43.37685 19.26867 38159 ft 488 kts 308°
2026-04-23 08:23 43.42229 19.17967 38177 ft 490 kts 307°
2026-04-23 08:24 43.45507 19.11530 38184 ft 491 kts 308°
2026-04-23 08:24 43.49404 19.03860 38191 ft 492 kts 308°
2026-04-23 08:25 43.53322 18.96132 38196 ft 492 kts 308°
2026-04-23 08:25 43.57239 18.88384 38201 ft 493 kts 307°
2026-04-23 08:26 43.61156 18.80614 38204 ft 492 kts 308°
2026-04-23 08:26 43.65069 18.72831 38184 ft 493 kts 308°
2026-04-23 08:27 43.68979 18.65037 38196 ft 493 kts 308°
2026-04-23 08:27 43.72889 18.57221 38193 ft 494 kts 308°
2026-04-23 08:28 43.76774 18.49433 38220 ft 494 kts 308°
2026-04-23 08:28 43.80673 18.41597 38219 ft 494 kts 308°
2026-04-23 08:29 43.84563 18.33757 38216 ft 494 kts 308°
2026-04-23 08:29 43.88448 18.25906 38211 ft 493 kts 308°
2026-04-23 08:30 43.92301 18.18100 38205 ft 493 kts 308°
2026-04-23 08:30 43.96172 18.10235 38201 ft 494 kts 308°
2026-04-23 08:31 44.00043 18.02349 38202 ft 494 kts 308°
2026-04-23 08:31 44.03913 17.94444 38206 ft 494 kts 308°
2026-04-23 08:32 44.07778 17.86529 38208 ft 495 kts 308°
2026-04-23 08:32 44.11637 17.78603 38210 ft 495 kts 308°
2026-04-23 08:33 44.15493 17.70662 38202 ft 495 kts 308°
2026-04-23 08:33 44.19318 17.62763 38198 ft 495 kts 308°
2026-04-23 08:34 44.23159 17.54809 38211 ft 495 kts 308°
2026-04-23 08:34 44.27005 17.46824 38213 ft 495 kts 308°
2026-04-23 08:35 44.30852 17.38817 38205 ft 496 kts 308°
2026-04-23 08:35 44.34688 17.30807 38218 ft 496 kts 308°
2026-04-23 08:36 44.38493 17.22840 38218 ft 496 kts 308°
2026-04-23 08:36 44.42324 17.14799 38216 ft 496 kts 307°
2026-04-23 08:37 44.46148 17.06746 38214 ft 496 kts 308°
2026-04-23 08:37 44.49960 16.98699 38218 ft 496 kts 308°
2026-04-23 08:38 44.53778 16.90617 38224 ft 497 kts 307°
2026-04-23 08:38 44.57569 16.82570 38225 ft 497 kts 307°
2026-04-23 08:39 44.61373 16.74469 38231 ft 497 kts 307°
2026-04-23 08:39 44.65178 16.66348 38235 ft 497 kts 307°
2026-04-23 08:40 44.68979 16.58211 38235 ft 498 kts 307°
2026-04-23 08:40 44.72756 16.50100 38240 ft 498 kts 307°
2026-04-23 08:41 44.76548 16.41934 38225 ft 498 kts 307°
2026-04-23 08:41 44.80331 16.33767 38212 ft 498 kts 307°
2026-04-23 08:42 44.84118 16.25566 38240 ft 499 kts 307°
2026-04-23 08:42 44.87904 16.17345 38225 ft 500 kts 307°
2026-04-23 08:43 44.91688 16.09104 38234 ft 500 kts 307°
2026-04-23 08:43 44.95442 16.00904 38239 ft 501 kts 307°
2026-04-23 08:44 44.99221 15.92626 38238 ft 501 kts 307°
2026-04-23 08:44 45.02993 15.84338 38235 ft 501 kts 307°
2026-04-23 08:45 45.06760 15.76037 38246 ft 501 kts 307°
2026-04-23 08:45 45.10522 15.67726 38252 ft 501 kts 307°
2026-04-23 08:46 45.14282 15.59392 38252 ft 501 kts 307°
2026-04-23 08:46 45.18010 15.51106 38245 ft 502 kts 307°
2026-04-23 08:47 45.21762 15.42742 38248 ft 502 kts 307°
2026-04-23 08:47 45.25514 15.34352 38251 ft 503 kts 307°
2026-04-23 08:48 45.29259 15.25955 38252 ft 503 kts 307°
2026-04-23 08:48 45.32981 15.17584 38253 ft 503 kts 307°
2026-04-23 08:49 45.36716 15.09158 38246 ft 503 kts 306°
2026-04-23 08:49 45.40441 15.00743 38256 ft 502 kts 306°
2026-04-23 08:50 45.44161 14.92322 38256 ft 502 kts 306°
2026-04-23 08:50 45.47872 14.83946 38241 ft 502 kts 308°
2026-04-23 08:51 45.51811 14.75735 38240 ft 501 kts 309°
2026-04-23 08:51 45.55775 14.67533 38246 ft 501 kts 309°
2026-04-23 08:52 45.59684 14.59340 38242 ft 502 kts 308°
2026-04-23 08:52 45.63613 14.51060 38240 ft 503 kts 308°
2026-04-23 08:53 45.67533 14.42773 38257 ft 503 kts 308°
2026-04-23 08:53 45.71442 14.34485 38255 ft 503 kts 308°
2026-04-23 08:54 45.75326 14.26226 38239 ft 502 kts 308°
2026-04-23 08:54 45.79222 14.17917 38239 ft 502 kts 308°
2026-04-23 08:55 45.83111 14.09600 38241 ft 502 kts 308°
2026-04-23 08:55 45.86994 14.01274 38241 ft 502 kts 308°
2026-04-23 08:56 45.90841 13.92996 38233 ft 502 kts 308°
2026-04-23 08:56 45.94717 13.84632 38262 ft 503 kts 308°
2026-04-23 08:57 45.98583 13.76267 38255 ft 503 kts 308°
2026-04-23 08:57 46.02452 13.67867 38257 ft 503 kts 308°
2026-04-23 08:58 46.06273 13.59394 38252 ft 506 kts 304°
2026-04-23 08:58 46.09651 13.50565 38263 ft 507 kts 303°
2026-04-23 08:59 46.13080 13.41695 38263 ft 506 kts 303°
2026-04-23 08:59 46.16499 13.32798 38261 ft 506 kts 303°
2026-04-23 09:00 46.19903 13.23887 38231 ft 507 kts 303°
2026-04-23 09:00 46.23301 13.14963 38258 ft 507 kts 303°
2026-04-23 09:01 46.26687 13.06036 38261 ft 507 kts 303°
2026-04-23 09:01 46.30051 12.97140 38262 ft 508 kts 302°
2026-04-23 09:02 46.33455 12.88110 38236 ft 508 kts 302°
2026-04-23 09:02 46.36812 12.79174 38235 ft 508 kts 302°
2026-04-23 09:03 46.40179 12.70176 38237 ft 508 kts 302°
2026-04-23 09:03 46.43550 12.61143 38241 ft 507 kts 302°
2026-04-23 09:04 46.46875 12.52207 38245 ft 506 kts 302°
2026-04-23 09:04 46.50213 12.43201 38250 ft 508 kts 302°
2026-04-23 09:05 46.53559 12.34142 38295 ft 509 kts 302°
2026-04-23 09:05 46.56903 12.25061 38310 ft 509 kts 302°
2026-04-23 09:06 46.60237 12.15979 38262 ft 509 kts 301°
2026-04-23 09:06 46.63563 12.06883 38270 ft 509 kts 301°
2026-04-23 09:07 46.66866 11.97819 38265 ft 510 kts 301°
2026-04-23 09:07 46.70189 11.88671 38285 ft 511 kts 301°
2026-04-23 09:08 46.73507 11.79501 38293 ft 510 kts 301°
2026-04-23 09:08 46.76808 11.70350 38283 ft 508 kts 301°
2026-04-23 09:09 46.80080 11.61252 38291 ft 509 kts 301°
2026-04-23 09:09 46.83363 11.52087 38311 ft 508 kts 301°
2026-04-23 09:10 46.88264 11.38354 38313 ft 510 kts 301°
2026-04-23 09:11 46.91539 11.29134 38324 ft 510 kts 301°
2026-04-23 09:11 46.94493 11.21672 38323 ft 506 kts 309°
2026-04-23 09:12 46.98982 11.13836 38327 ft 501 kts 317°
2026-04-23 09:12 47.03726 11.06310 38334 ft 502 kts 316°
2026-04-23 09:13 47.08458 10.98751 38333 ft 502 kts 317°
2026-04-23 09:13 47.13184 10.91206 38334 ft 502 kts 317°
2026-04-23 09:14 47.17879 10.83694 38341 ft 502 kts 316°
2026-04-23 09:14 47.22606 10.76108 38303 ft 502 kts 316°
2026-04-23 09:15 47.27324 10.68516 38302 ft 503 kts 316°
2026-04-23 09:15 47.32048 10.60891 38303 ft 503 kts 316°
2026-04-23 09:16 47.36751 10.53276 38311 ft 502 kts 316°
2026-04-23 09:16 47.41705 10.46063 38293 ft 497 kts 325°
2026-04-23 09:17 47.47160 10.39825 38283 ft 496 kts 326°
2026-04-23 09:17 47.52606 10.33526 38294 ft 497 kts 326°
2026-04-23 09:18 47.58069 10.27204 38293 ft 498 kts 326°
2026-04-23 09:18 47.63505 10.20908 38310 ft 499 kts 326°
2026-04-23 09:19 47.68987 10.14543 38313 ft 500 kts 326°
2026-04-23 09:19 47.74467 10.08163 38312 ft 501 kts 326°
2026-04-23 09:20 47.79950 10.01761 38311 ft 501 kts 326°
2026-04-23 09:20 47.85431 9.95346 38335 ft 501 kts 326°
2026-04-23 09:21 47.90915 9.88906 38337 ft 502 kts 326°
2026-04-23 09:21 47.96397 9.82452 38334 ft 502 kts 326°
2026-04-23 09:22 48.01849 9.76016 38326 ft 502 kts 326°
2026-04-23 09:22 48.07327 9.69533 38337 ft 502 kts 325°
2026-04-23 09:23 48.12504 9.62445 38332 ft 506 kts 319°
2026-04-23 09:23 48.17564 9.55120 38342 ft 506 kts 320°
2026-04-23 09:24 48.22639 9.47788 38343 ft 506 kts 319°
2026-04-23 09:24 48.27675 9.40468 38320 ft 507 kts 319°
2026-04-23 09:25 48.32736 9.33076 38333 ft 507 kts 319°
2026-04-23 09:25 48.37794 9.25666 38346 ft 508 kts 319°
2026-04-23 09:26 48.42860 9.18222 38352 ft 508 kts 319°
2026-04-23 09:26 48.47918 9.10770 38361 ft 508 kts 319°
2026-04-23 09:27 48.52970 9.03304 38352 ft 508 kts 319°
2026-04-23 09:27 48.57983 8.95873 38359 ft 509 kts 319°
2026-04-23 09:28 48.63029 8.88374 38366 ft 509 kts 319°
2026-04-23 09:28 48.67974 8.81001 38357 ft 509 kts 319°
2026-04-23 09:29 48.73104 8.73328 38360 ft 509 kts 319°
2026-04-23 09:29 48.78152 8.65758 38344 ft 510 kts 318°
2026-04-23 09:30 48.83196 8.58170 38358 ft 511 kts 318°
2026-04-23 09:30 48.88242 8.50556 38371 ft 511 kts 318°
2026-04-23 09:31 48.93287 8.42921 38369 ft 512 kts 318°
2026-04-23 09:31 48.98293 8.35322 38371 ft 512 kts 318°
2026-04-23 09:32 49.03323 8.27663 38377 ft 511 kts 318°
2026-04-23 09:32 49.08358 8.19973 38375 ft 511 kts 318°
2026-04-23 09:33 49.13374 8.12288 38381 ft 511 kts 318°
2026-04-23 09:33 49.18393 8.04576 38380 ft 511 kts 317°
2026-04-23 09:34 49.23401 7.96858 38346 ft 511 kts 317°
2026-04-23 09:34 49.28377 7.89165 38372 ft 511 kts 317°
2026-04-23 09:35 49.33388 7.81396 38369 ft 511 kts 317°
2026-04-23 09:35 49.38386 7.73621 38372 ft 512 kts 317°
2026-04-23 09:36 49.43383 7.65825 38375 ft 512 kts 317°
2026-04-23 09:36 49.48374 7.58014 38361 ft 513 kts 317°
2026-04-23 09:37 49.53374 7.50164 38372 ft 513 kts 317°
2026-04-23 09:37 49.58375 7.42289 38385 ft 514 kts 317°
2026-04-23 09:38 49.63378 7.34385 38386 ft 515 kts 317°
2026-04-23 09:38 49.68342 7.26517 38391 ft 515 kts 316°
2026-04-23 09:39 49.73346 7.18564 38367 ft 515 kts 316°
2026-04-23 09:39 49.78337 7.10604 38375 ft 515 kts 316°
2026-04-23 09:40 49.83335 7.02609 38375 ft 516 kts 316°
2026-04-23 09:40 49.88294 6.94650 38378 ft 516 kts 316°
2026-04-23 09:41 49.93281 6.86622 38387 ft 516 kts 316°
2026-04-23 09:41 49.98264 6.78576 38371 ft 517 kts 316°
2026-04-23 09:42 50.03245 6.70504 38382 ft 517 kts 316°
2026-04-23 09:42 50.08190 6.62468 38385 ft 517 kts 316°
2026-04-23 09:43 50.13170 6.54350 38377 ft 518 kts 316°
2026-04-23 09:43 50.18023 6.46008 38373 ft 519 kts 310°
2026-04-23 09:44 50.22079 6.36632 38364 ft 521 kts 302°
2026-04-23 09:44 50.25880 6.26988 38360 ft 521 kts 302°
2026-04-23 09:45 50.29701 6.17330 38391 ft 522 kts 302°
2026-04-23 09:45 50.33499 6.07635 38393 ft 522 kts 302°
2026-04-23 09:46 50.37265 5.97970 38391 ft 523 kts 302°
2026-04-23 09:46 50.41044 5.88234 38397 ft 523 kts 302°
2026-04-23 09:47 50.44818 5.78474 38396 ft 523 kts 301°
2026-04-23 09:47 50.48583 5.68701 38403 ft 523 kts 301°
2026-04-23 09:48 50.52344 5.58903 38400 ft 523 kts 301°
2026-04-23 09:48 50.56070 5.49159 38411 ft 523 kts 301°
2026-04-23 09:49 50.59813 5.39332 38420 ft 523 kts 301°
2026-04-23 09:49 50.63543 5.29500 38428 ft 523 kts 301°
2026-04-23 09:50 50.67268 5.19646 38427 ft 523 kts 301°
2026-04-23 09:50 50.70983 5.09781 38462 ft 522 kts 300°
2026-04-23 09:51 50.74654 4.99996 38462 ft 521 kts 300°
2026-04-23 09:51 50.78340 4.90134 38442 ft 520 kts 300°
2026-04-23 09:52 50.82010 4.80273 38431 ft 520 kts 300°
2026-04-23 09:52 50.85670 4.70404 38430 ft 520 kts 300°
2026-04-23 09:53 50.89302 4.60576 38480 ft 519 kts 300°
2026-04-23 09:53 50.92936 4.50701 38478 ft 517 kts 300°
2026-04-23 09:54 50.96548 4.40849 38469 ft 516 kts 299°
2026-04-23 09:54 51.00148 4.30991 38459 ft 516 kts 299°
2026-04-23 09:55 51.03727 4.21151 38451 ft 515 kts 299°
2026-04-23 09:55 51.06702 4.12944 38445 ft 514 kts 299°
2026-04-23 09:56 51.10269 4.03071 38434 ft 514 kts 299°
2026-04-23 09:56 51.13823 3.93191 38430 ft 513 kts 299°
2026-04-23 09:57 51.17371 3.83293 38427 ft 513 kts 299°
2026-04-23 09:57 51.20901 3.73409 38449 ft 512 kts 299°
2026-04-23 09:58 51.24407 3.63581 38440 ft 511 kts 299°
2026-04-23 09:58 51.28029 3.53815 38441 ft 511 kts 300°
2026-04-23 09:59 51.31666 3.44055 38426 ft 511 kts 300°
2026-04-23 09:59 51.35081 3.34104 38437 ft 510 kts 293°
2026-04-23 10:00 51.37634 3.23537 38440 ft 509 kts 290°
2026-04-23 10:00 51.40152 3.12956 38446 ft 509 kts 290°
2026-04-23 10:01 51.42643 3.02419 38451 ft 509 kts 290°
2026-04-23 10:01 51.45137 2.91792 38450 ft 509 kts 289°
2026-04-23 10:02 51.47616 2.81162 38456 ft 508 kts 290°
2026-04-23 10:02 51.50085 2.70525 38462 ft 508 kts 290°
2026-04-23 10:03 51.52540 2.59897 38460 ft 508 kts 290°
2026-04-23 10:03 51.53770 2.54552 38307 ft 508 kts 289°
2026-04-23 10:03 51.54990 2.49236 37675 ft 508 kts 289°
2026-04-23 10:03 51.56215 2.43888 36575 ft 515 kts 289°
2026-04-23 10:04 51.57465 2.38408 35286 ft 526 kts 289°
2026-04-23 10:04 51.58729 2.32849 33980 ft 534 kts 288°
2026-04-23 10:04 51.60019 2.27179 32612 ft 542 kts 288°
2026-04-23 10:04 51.61291 2.21584 31864 ft 537 kts 288°
2026-04-23 10:05 51.62557 2.16012 31617 ft 521 kts 288°
2026-04-23 10:05 51.63783 2.10596 31169 ft 510 kts 287°
2026-04-23 10:05 51.64992 2.05224 30297 ft 510 kts 287°
2026-04-23 10:05 51.66190 1.99871 29617 ft 504 kts 287°
2026-04-23 10:06 51.67364 1.94617 29215 ft 492 kts 287°
2026-04-23 10:06 51.68505 1.89488 28614 ft 485 kts 288°
2026-04-23 10:06 51.69636 1.84393 28208 ft 473 kts 288°
2026-04-23 10:06 51.70735 1.79442 27656 ft 466 kts 288°
2026-04-23 10:07 51.71803 1.74620 27069 ft 460 kts 289°
2026-04-23 10:07 51.72871 1.69786 26489 ft 454 kts 289°
2026-04-23 10:07 51.73861 1.64987 25913 ft 448 kts 284°
2026-04-23 10:07 51.74387 1.60050 25337 ft 442 kts 274°
2026-04-23 10:08 51.74392 1.55115 24657 ft 439 kts 264°
2026-04-23 10:08 51.74056 1.50244 23993 ft 436 kts 263°
2026-04-23 10:08 51.73736 1.45391 23284 ft 432 kts 264°
2026-04-23 10:09 51.73126 1.35918 22017 ft 422 kts 265°
2026-04-23 10:09 51.72822 1.31229 21374 ft 418 kts 265°
2026-04-23 10:09 51.72518 1.26587 20753 ft 414 kts 265°
2026-04-23 10:09 51.72215 1.22002 20140 ft 411 kts 265°
2026-04-23 10:10 51.71910 1.17432 19520 ft 408 kts 265°
2026-04-23 10:10 51.71606 1.12901 18904 ft 405 kts 266°
2026-04-23 10:10 51.71301 1.08395 18244 ft 402 kts 266°
2026-04-23 10:10 51.70999 1.03943 17643 ft 397 kts 266°
2026-04-23 10:11 51.70699 0.99549 17046 ft 393 kts 265°
2026-04-23 10:11 51.70401 0.95213 16563 ft 387 kts 265°
2026-04-23 10:11 51.70106 0.90931 16178 ft 383 kts 265°
2026-04-23 10:11 51.69812 0.86677 15422 ft 387 kts 265°
2026-04-23 10:12 51.69508 0.82333 14905 ft 382 kts 265°
2026-04-23 10:12 51.69216 0.78186 14572 ft 375 kts 265°
2026-04-23 10:12 51.68921 0.74027 14098 ft 370 kts 265°
2026-04-23 10:12 51.68630 0.69915 13616 ft 369 kts 264°
2026-04-23 10:13 51.68338 0.65819 13190 ft 363 kts 264°
2026-04-23 10:13 51.68055 0.61860 13048 ft 349 kts 264°
2026-04-23 10:13 51.67780 0.58052 12832 ft 334 kts 264°
2026-04-23 10:13 51.67519 0.54470 12596 ft 318 kts 264°
2026-04-23 10:14 51.67262 0.50923 11879 ft 320 kts 264°
2026-04-23 10:14 51.67008 0.47403 11312 ft 316 kts 263°
2026-04-23 10:14 51.66757 0.43930 10786 ft 312 kts 263°
2026-04-23 10:14 51.66500 0.40460 10324 ft 310 kts 262°
2026-04-23 10:15 51.66243 0.37013 9929 ft 309 kts 262°
2026-04-23 10:15 51.65988 0.33564 9554 ft 310 kts 262°
2026-04-23 10:15 51.65738 0.30209 9336 ft 301 kts 262°
2026-04-23 10:15 51.65488 0.26856 9210 ft 290 kts 262°
2026-04-23 10:16 51.65251 0.23706 9147 ft 278 kts 262°
2026-04-23 10:16 51.65022 0.20667 9000 ft 270 kts 262°
2026-04-23 10:16 51.64794 0.17685 8751 ft 266 kts 262°
2026-04-23 10:16 51.64567 0.14699 8413 ft 267 kts 262°
2026-04-23 10:17 51.64374 0.11749 7898 ft 270 kts 264°
2026-04-23 10:17 51.64220 0.08764 7567 ft 264 kts 264°
2026-04-23 10:17 51.64075 0.05845 7482 ft 261 kts 264°
2026-04-23 10:17 51.63924 0.02917 7479 ft 263 kts 263°
2026-04-23 10:18 51.63767 -0.00002 7488 ft 261 kts 264°
2026-04-23 10:18 51.63609 -0.02918 7536 ft 261 kts 263°
2026-04-23 10:18 51.63448 -0.05802 7516 ft 258 kts 263°
2026-04-23 10:18 51.63286 -0.08673 7274 ft 257 kts 262°
2026-04-23 10:19 51.63124 -0.11520 6985 ft 257 kts 262°
2026-04-23 10:19 51.62961 -0.14356 6517 ft 256 kts 262°
2026-04-23 10:19 51.62794 -0.17229 6087 ft 254 kts 262°
2026-04-23 10:19 51.62631 -0.20058 5648 ft 253 kts 262°
2026-04-23 10:20 51.62470 -0.22861 5324 ft 250 kts 262°
2026-04-23 10:20 51.62312 -0.25648 5057 ft 250 kts 262°
2026-04-23 10:20 51.62151 -0.28437 4778 ft 250 kts 262°
2026-04-23 10:20 51.61988 -0.31213 4510 ft 249 kts 262°
2026-04-23 10:21 51.61823 -0.33996 4152 ft 248 kts 262°
2026-04-23 10:21 51.61659 -0.36759 4143 ft 248 kts 262°
2026-04-23 10:21 51.61495 -0.39518 4368 ft 250 kts 262°
2026-04-23 10:21 51.61329 -0.42316 4447 ft 251 kts 262°
2026-04-23 10:22 51.61167 -0.45076 4463 ft 251 kts 262°
2026-04-23 10:22 51.61001 -0.47852 4450 ft 249 kts 262°
2026-04-23 10:22 51.60834 -0.50624 4455 ft 249 kts 262°
2026-04-23 10:22 51.60666 -0.53414 4446 ft 251 kts 262°
2026-04-23 10:23 51.60498 -0.56194 4452 ft 248 kts 262°
2026-04-23 10:23 51.60329 -0.58970 4460 ft 249 kts 262°
2026-04-23 10:23 51.60160 -0.61752 4455 ft 249 kts 262°
2026-04-23 10:23 51.59992 -0.64517 4450 ft 246 kts 262°
2026-04-23 10:24 51.59831 -0.67191 4448 ft 234 kts 262°
2026-04-23 10:24 51.59674 -0.69735 4447 ft 223 kts 262°
2026-04-23 10:24 51.59520 -0.72219 4449 ft 223 kts 262°
2026-04-23 10:24 51.59366 -0.74673 4398 ft 220 kts 262°
2026-04-23 10:25 51.59161 -0.77076 4303 ft 211 kts 248°
2026-04-23 10:25 51.58421 -0.78879 4086 ft 186 kts 213°
2026-04-23 10:25 51.57272 -0.79653 3635 ft 177 kts 184°
2026-04-23 10:25 51.56059 -0.79765 3476 ft 174 kts 173°
2026-04-23 10:26 51.54844 -0.79669 3451 ft 174 kts 171°
2026-04-23 10:26 51.53632 -0.79543 3457 ft 175 kts 171°
2026-04-23 10:26 51.52425 -0.79436 3399 ft 172 kts 172°
2026-04-23 10:26 51.51230 -0.79349 3124 ft 170 kts 172°
2026-04-23 10:27 51.50153 -0.79042 2923 ft 150 kts 145°
2026-04-23 10:27 51.49346 -0.77992 2957 ft 150 kts 133°
2026-04-23 10:27 51.48636 -0.76801 2949 ft 149 kts 127°
2026-04-23 10:27 51.48088 -0.75391 2963 ft 149 kts 113°
2026-04-23 10:28 51.47789 -0.73803 2945 ft 148 kts 101°
2026-04-23 10:28 51.47697 -0.72242 2946 ft 135 kts 94°
2026-04-23 10:28 51.47681 -0.70785 2853 ft 129 kts 93°
2026-04-23 10:28 51.47677 -0.69354 2689 ft 126 kts 92°
2026-04-23 10:29 51.47679 -0.67990 2518 ft 123 kts 92°
2026-04-23 10:29 51.47679 -0.66607 2353 ft 124 kts 92°
2026-04-23 10:29 51.47690 -0.65227 2191 ft 123 kts 91°
2026-04-23 10:29 51.47686 -0.63859 2026 ft 124 kts 92°
2026-04-23 10:30 51.47700 -0.62470 1845 ft 124 kts 90°
2026-04-23 10:30 51.47706 -0.61083 1676 ft 124 kts 90°
2026-04-23 10:30 51.47706 -0.59703 1506 ft 124 kts 90°
2026-04-23 10:30 51.47714 -0.58339 1345 ft 123 kts 89°
2026-04-23 10:31 51.47721 -0.56940 1180 ft 123 kts 89°
2026-04-23 10:31 51.47727 -0.55561 985 ft 125 kts 89°
2026-04-23 10:31 51.47719 -0.54192 798 ft 124 kts 88°
2026-04-23 10:31 51.47737 -0.52808 623 ft 126 kts 86°
2026-04-23 10:32 51.47720 -0.51393 433 ft 127 kts 89°
2026-04-23 10:32 51.47738 -0.50034 316 ft 122 kts 87°
2026-04-23 10:32 51.47750 -0.48661 173 ft 124 kts 88°
2026-04-23 10:32 51.47760 -0.47341 91 ft 108 kts 88°
2026-04-23 10:33 51.47762 -0.46425 93 ft 52 kts 90°
2026-04-23 10:33 51.47764 -0.45937 90 ft 39 kts 89°
2026-04-23 10:33 51.47770 -0.45517 94 ft 32 kts 89°
2026-04-23 10:33 51.47769 -0.45202 96 ft 27 kts 89°
2026-04-23 10:34 51.47763 -0.44857 94 ft 34 kts 93°
2026-04-23 10:34 51.47746 -0.44537 93 ft 24 kts 104°
2026-04-23 10:34 51.47678 -0.44320 94 ft 21 kts 115°
2026-04-23 10:34 51.47615 -0.44265 94 ft 9 kts 212°
2026-04-23 10:35 51.47601 -0.44433 94 ft 21 kts 266°
2026-04-23 10:35 51.47599 -0.44682 91 ft 26 kts 270°
2026-04-23 10:35 51.47596 -0.44995 95 ft 30 kts 268°
2026-04-23 10:35 51.47592 -0.45346 93 ft 33 kts 269°
2026-04-23 10:36 51.47592 -0.45553 92 ft 15 kts 271°
2026-04-23 10:36 51.47595 -0.45754 94 ft 21 kts 272°
2026-04-23 10:36 51.47600 -0.46018 91 ft 26 kts 270°
2026-04-23 10:36 51.47591 -0.46324 92 ft 29 kts 268°
2026-04-23 10:37 51.47594 -0.46654 95 ft 31 kts 268°
2026-04-23 10:37 51.47569 -0.46893 95 ft 18 kts 218°
2026-04-23 10:37 51.47443 -0.46899 93 ft 20 kts 168°
2026-04-23 10:37 51.47303 -0.46861 94 ft 21 kts 179°
2026-04-23 10:38 51.47152 -0.46870 94 ft 23 kts 178°
2026-04-23 10:38 51.46997 -0.46865 91 ft 21 kts 180°
2026-04-23 10:38 51.46851 -0.46864 93 ft 13 kts 180°
2026-04-23 10:38 51.46769 -0.46842 93 ft 12 kts 141°
2026-04-23 10:39 51.46747 -0.46723 95 ft 12 kts 87°
2026-04-23 10:39 51.46750 -0.46588 93 ft 13 kts 88°
2026-04-23 10:39 51.46747 -0.46442 95 ft 14 kts 91°
2026-04-23 10:39 51.46746 -0.46274 95 ft 19 kts 90°
2026-04-23 10:40 51.46746 -0.46153 95 ft 1 kts 90°
2026-04-23 10:40 51.46746 -0.46113 94 ft 6 kts 89°
2026-04-23 10:40 51.46746 -0.46059 95 ft 8 kts 89°
2026-04-23 10:40 51.46746 -0.45950 95 ft 11 kts 89°
2026-04-23 10:41 51.46747 -0.45779 95 ft 13 kts 89°
2026-04-23 10:41 51.46772 -0.45712 95 ft 6 kts 14°
2026-04-23 10:41 51.46816 -0.45701 92 ft 4 kts
2026-04-23 10:41 51.46837 -0.45700 91 ft 0 kts
2026-04-23 10:42 51.46838 -0.45700 91 ft 0 kts